NEOSSAT

Last updated on Sun Jun 21 2026 00:03:39 GMT+0000 (Coordinated Universal Time)

1 39089U 13009D 26171.41509429 .00000098 00000+0 48537-4 0 9990 2 39089 98.4179 351.3709 0010010 233.0674 126.9596 14.35827352697206
UTC large
Height (km)
Speed (km/s)
/
Latitude / Longitude
Inclination (degrees)
Orbital Period (minutes)
Azimuth
Elevation
Range (km)
Doppler Factor

Next 0 passes for location: London (51.5072 / 0.1276)

No passes found over London.
NEOSSAT